map of KTT home
Great Circle Mapper logo
KTT - Airport
Location
City:  Kittilä, Lappi (Lappland (Lapland)), Finland
Name:Kittilä Airport
ICAO:EFKT
IATA:KTT

Details
Type:Airport (Aerodrome, Airfield)
Latitude:67°42'04"N (67.701022)
Longitude:24°50'49"E (24.846850)
Datum:WGS 1984
Elevation:644 ft (196 m)
Variation:11.16°E (WMM2015 magnetic declination)
0.20° annual change
Runways:1
Longest:8202 × 148 ft (2500 × 45 m), paved

Time
Time Zone:UTC+2 (DST+3)
Local Time:

Weather
METAR:EFKT 312320Z AUTO 17010KT 9999 OVC006 11/10 Q1001

Related Locations
Nearby:
Farthest:NZWD: 11416 mi / 18372 km
McMurdo Station [Williams Field], Ross Island, AQ

Find:

   beyond  
but within

Other Information
Maps:
NOTAMs:
Links:
Sources:

  
flag of Finland   

Sectional Chart

Flight Planning
at skyvector.com

Satellite Image

Google Maps Satellite view

 

Copyright © 2004-2016 Karl L. Swartz. All rights reserved.
The Great Circle Mapper name and logo are trademarks of the Great Circle Mapper.
All other trademarks mentioned herein belong to their respective owners.
Please see credits for attibutions and further copyright information.

  Follow gcmap on Facebook Follow gcmap on Twitter Follow gcmap on Google+ GCmap on LinkedIn

hCard Microformat

Geo Microformat